Weather History for Dallas Addison, TX

Change the Weather History Date:

Thursday, June 13, 2013

  Actual Average Record
Temperature  
Mean Temperature 87 °F -  
Max Temperature 96 °F 87 °F 100 °F (2011)
Min Temperature 78 °F 70 °F 68 °F (2003)
Cooling Degree Days 22    
Growing Degree Days 37 (Base 50)    
Moisture  
Dew Point 64 °F    
Average Humidity 50    
Maximum Humidity 69    
Minimum Humidity 30    
Precipitation  
Precipitation 0.00 in - - ()
Sea Level Pressure  
Sea Level Pressure 29.99 in    
Wind  
Wind Speed 7 mph (South)    
Max Wind Speed 9 mph    
Max Gust Speed 16 mph    
Visibility 11 miles    
Events      
Averages and records for this station are not official NWS values.
T = Trace of Precipitation, MM = Missing Value Source: NWS Daily Summary

Daily Weather History Graph

Daily Weather History Graph

Search for Another Location

Airport:

Trip Planner

Search our weather history database for the weather conditions in past years. The results will help you decide how hot, cold, wet, or windy it might be!

Date:

Astronomy

Jun. 13, 2013 Rise Set
Actual Time 6:18 AM CDT 8:36 PM CDT
Civil Twilight 5:49 AM CDT 9:05 PM CDT
Nautical Twilight 5:14 AM CDT 9:40 PM CDT
Astronomical Twilight 4:36 AM CDT 10:18 PM CDT
Moon 10:44 AM CDT (6/13) 11:57 PM CDT (6/13)
Length of Visible Light 15h 15m
Length of Day
14h 18m
Waxing Crescent, 22% of the Moon is Illuminated
Jun 13
Waxing Crescent
Jun 16
First Quarter
Jun 23
Full
Jun 29
Last Quarter
Jul 8
New

Hourly Weather History & Observations

Time (CDT) Temp. Heat Index Dew Point Humidity Pressure Visibility Wind Dir Wind Speed Gust Speed Precip Events Conditions
12:15 AM 84.2 °F 85.6 °F 64.4 °F 51% 29.99 in 10.0 mi SSE 6.9 mph - N/A   Clear
12:35 AM 84.2 °F 85.6 °F 64.4 °F 51% 29.99 in 10.0 mi South 8.1 mph - N/A   Clear
12:55 AM 84.2 °F 85.6 °F 64.4 °F 51% 29.99 in 10.0 mi South 6.9 mph - N/A   Clear
1:15 AM 84.2 °F 85.6 °F 64.4 °F 51% 29.99 in 10.0 mi South 8.1 mph - N/A   Clear
1:35 AM 82.4 °F 83.9 °F 64.4 °F 54% 29.99 in 10.0 mi South 5.8 mph - N/A   Clear
1:55 AM 82.4 °F 83.9 °F 64.4 °F 54% 29.99 in 10.0 mi SSW 4.6 mph - N/A   Clear
2:15 AM 82.4 °F 83.9 °F 64.4 °F 54% 30.00 in 10.0 mi SSW 5.8 mph - N/A   Clear
2:35 AM 82.4 °F 83.9 °F 64.4 °F 54% 30.00 in 10.0 mi SSW 6.9 mph - N/A   Clear
2:55 AM 82.4 °F 83.9 °F 64.4 °F 54% 30.00 in 10.0 mi SSW 8.1 mph - N/A   Clear
3:15 AM 80.6 °F 82.3 °F 64.4 °F 58% 30.00 in 10.0 mi SSW 8.1 mph - N/A   Clear
3:35 AM 80.6 °F 82.3 °F 64.4 °F 58% 30.00 in 10.0 mi SSW 6.9 mph - N/A   Clear
3:55 AM 80.6 °F 82.3 °F 64.4 °F 58% 30.00 in 10.0 mi SSW 5.8 mph - N/A   Clear
4:15 AM 80.6 °F 82.3 °F 64.4 °F 58% 30.00 in 10.0 mi SSW 5.8 mph - N/A   Clear
4:35 AM 78.8 °F - 64.4 °F 61% 30.00 in 10.0 mi SSW 4.6 mph - N/A   Clear
4:55 AM 78.8 °F - 64.4 °F 61% 30.01 in 10.0 mi SSW 4.6 mph - N/A   Clear
5:15 AM 78.8 °F - 64.4 °F 61% 30.01 in 10.0 mi SW 8.1 mph - N/A   Clear
5:35 AM 78.8 °F - 64.4 °F 61% 30.02 in 10.0 mi SSW 4.6 mph - N/A   Clear
5:50 AM 78.8 °F - 66.2 °F 65% 30.02 in 13.0 mi South 6.9 mph - N/A   Clear
5:55 AM 78.8 °F - 64.4 °F 61% 30.02 in 10.0 mi SW 5.8 mph - N/A   Clear
7:50 AM 78.8 °F - 68.0 °F 69% 30.05 in 13.0 mi SSW 8.1 mph - N/A   Clear
8:50 AM 82.4 °F 85.4 °F 68.0 °F 62% 30.06 in 13.0 mi SW 6.9 mph 15.0 mph N/A   Clear
9:47 AM 84.2 °F 87.3 °F 68.0 °F 58% 30.07 in 13.0 mi SSW 8.1 mph 15.0 mph N/A   Partly Cloudy
10:47 AM 87.8 °F 91.4 °F 68.0 °F 52% 30.06 in 13.0 mi SSW 6.9 mph 12.7 mph N/A   Clear
11:47 AM 89.6 °F 92.2 °F 66.2 °F 46% 30.06 in 13.0 mi SW 3.5 mph 16.1 mph N/A   Clear
12:47 PM 91.4 °F 93.2 °F 64.4 °F 41% 30.04 in 13.0 mi South 9.2 mph - N/A   Clear
1:49 PM 93.2 °F 94.1 °F 62.6 °F 36% 30.02 in 13.0 mi South 9.2 mph - N/A   Clear
2:57 PM 93.2 °F 94.1 °F 62.6 °F 36% 29.99 in 13.0 mi East 3.5 mph - N/A   Clear
3:47 PM 95.0 °F 95.2 °F 60.8 °F 32% 29.96 in 13.0 mi SSE 8.1 mph - N/A   Clear
4:47 PM 96.8 °F 98.0 °F 62.6 °F 32% 29.94 in 13.0 mi WSW 4.6 mph - N/A   Clear
5:51 PM 95.0 °F 97.0 °F 64.4 °F 36% 29.92 in 13.0 mi SE 9.2 mph - N/A   Clear
6:47 PM 96.8 °F 97.1 °F 60.8 °F 30% 29.90 in 13.0 mi ESE 5.8 mph - N/A   Clear
7:47 PM 93.2 °F 94.1 °F 62.6 °F 36% 29.90 in 13.0 mi South 8.1 mph - N/A   Clear
9:47 PM 89.6 °F 91.1 °F 64.4 °F 43% 29.94 in 13.0 mi SSE 8.1 mph - N/A   Clear
10:15 PM 87.8 °F 88.5 °F 62.6 °F 43% 29.94 in 10.0 mi South 5.8 mph - N/A   Clear
10:35 PM 86.0 °F 86.6 °F 62.6 °F 45% 29.94 in 10.0 mi SSE 5.8 mph - N/A   Clear
10:55 PM 84.2 °F 85.6 °F 64.4 °F 51% 29.95 in 10.0 mi South 4.6 mph - N/A   Clear
11:15 PM 84.2 °F 85.0 °F 62.6 °F 48% 29.95 in 10.0 mi SSE 4.6 mph - N/A   Clear
11:35 PM 84.2 °F 85.0 °F 62.6 °F 48% 29.95 in 10.0 mi SSE 4.6 mph - N/A   Clear
11:55 PM 86.0 °F 86.6 °F 62.6 °F 45% 29.95 in 10.0 mi SE 3.5 mph - N/A   Clear